weather.gov     
National Weather Service

Regional Weather Roundup
NWS Homepage
This page is being discontinued on March 12, 2014.
The same data is available at this site. Please update your bookmarks.
Thank you, and we apologize for the inconvenience.
Please send an email to SR-SRH.Webmaster@noaa.gov with any concerns.


Current Version
Previous Version:    01  02  03  04  05  06  07  08  09  10  11  12  13  14  15  16  17  18  19  20  21  22  23  24  25  26  27  28  29  30  
   31  32  33  34  35  36  37  38  39  40  41  42  43  44  45  46  47  48  49  50  51  52  53  54  
[Printable]
855
ASUS44 KOUN 310310
RWROK

WEATHER ROUNDUP FOR OKLAHOMA
NATIONAL WEATHER SERVICE NORMAN OK
1000 PM CDT WED JUL 30 2014

NOTE: "FAIR" INDICATES FEW OR NO CLOUDS BELOW 12,000 FEET WITH NO
      SIGNIFICANT WEATHER AND/OR OBSTRUCTIONS TO VISIBILITY.

OKZ001>007-009>012-014-015-017-310400-
NORTHWEST OKLAHOMA AND THE PANHANDLE

CITY           SKY/WX    TMP DP  RH WIND       PRES   REMARKS
GAGE           CLOUDY    65  63  93 N16G22    30.14R
ENID/WOODRING  LGT RAIN  68  68 100 NE16      30.06R
$$

OKZ016-021>023-033>039-044-045-310400-
SOUTHWEST OKLAHOMA

CITY           SKY/WX    TMP DP  RH WIND       PRES   REMARKS
LAWTON/REGL    CLOUDY    72  67  84 N17       29.99R
LAWTON/FT SILL PTCLDY    71  68  92 N13       29.99R
FREDERICK      PTCLDY    72  68  87 N17       29.98R
CLINTON        CLOUDY    68  64  87 N16G25    30.09R
HOBART         CLOUDY    69  65  86 N22G28    30.05R
ALTUS AFB      PTCLDY    70  68  94 N20G26    30.02R
$$

OKZ018>020-024>031-310400-
CENTRAL OKLAHOMA

CITY           SKY/WX    TMP DP  RH WIND       PRES   REMARKS
OKLAHOMA CITY  CLOUDY    71  67  87 NE6       30.00R
OKC/WILEY POST CLOUDY    70  68  93 NE7       30.01R
OKC/TINKER AFB DRIZZLE   68  68 100 E8        30.01R
STILLWATER     CLOUDY    69  67  93 NE7       30.05R
GUTHRIE        LGT RAIN  69  67  93 NE7       30.03R
$$

OKZ008-013-054>072-310400-
NORTHEAST OKLAHOMA

CITY           SKY/WX    TMP DP  RH WIND       PRES   REMARKS
TULSA          LGT RAIN  69  68  96 NE9       30.03S
TULSA/JONES    LGT RAIN  69  69 100 NE5       30.04R
PONCA CITY     RAIN      67  65  93 NE18      30.08R FOG
BARTLESVILLE   LGT RAIN  66  65  96 CALM      30.08R
MUSKOGEE       LGT RAIN  68  67  96 SE6       30.05R
$$

OKZ032-040>043-046>053-073>077-310400-
SOUTH CENTRAL/SOUTHEAST OKLAHOMA

CITY           SKY/WX    TMP DP  RH WIND       PRES   REMARKS
ARDMORE/DWNTWN TSTM      73  70  88 E8G16     29.93R
MCALESTER      RAIN      70  68  93 E10G17    30.01R FOG
$$





U.S. Dept. of Commerce
NOAA National Weather Service
1325 East West Highway
Silver Spring, MD 20910
E-mail: w-nws.webmaster@noaa.gov
Page last modified: May 16, 2007
NATIONAL WEATHER SERVICE: for Safety, for Work, for Fun - FOR LIFE